Location: Newark
(13.6797°N, 8.5297°E)
Time: 03:26:41
(UTC+00:00)

Altair - Pass Details

Date: 27 January 2020
Orbit: 1502 x 1682 km, 47.2° (Epoch: 18 February)

Event Time Altitude Azimuth Distance (km) Brightness Sun altitude
Rises 04:44:09 0° 213° (SSW) 4,735 9.9 -17.0°
Reaches altitude 10° 04:47:13 10° 210° (SSW) 3,775 9.4 -16.2°
Maximum altitude 04:56:45 67° 129° (SE) 1,740 8.0 -14.0°
Drops below altitude 10° 05:06:38 10° 49° (NE) 3,909 10.1 -11.7°
Sets 05:09:50 0° 47° (NE) 4,911 10.6 -11.0°
